TYA9001 UNOO-UNNT

Flight info

Callsign TYA9001
Flight time 1h 1m
Altitude 35000
Route RUMOD6D RUMOD A844 BIKMI R234 ABESA B944 GOLIM GOLIM1P
Aircraft B733/M-SDE2E3FHIRW/S

Departure

Time 2026-04-22 16:10
Airport Omsk Central Airport (UNOO)

Arrival

Time 2026-04-22 17:12
Airport Novosibirsk Tolmachevo Airport (UNNT)
Time Latitude Longitude Altitude Speed Heading
2026-04-22 15:41 54.96325 73.32004 289 ft 0 kts 135°
2026-04-22 16:06 54.96323 73.32009 289 ft 2 kts 135°
2026-04-22 16:06 54.96304 73.32041 289 ft 5 kts 132°
2026-04-22 16:07 54.96306 73.32124 287 ft 10 kts 50°
2026-04-22 16:07 54.96377 73.32222 286 ft 14 kts 28°
2026-04-22 16:07 54.96469 73.32296 286 ft 16 kts 63°
2026-04-22 16:07 54.96501 73.32508 286 ft 20 kts 77°
2026-04-22 16:08 54.96536 73.32774 286 ft 24 kts 77°
2026-04-22 16:08 54.96594 73.33034 286 ft 21 kts 21°
2026-04-22 16:08 54.96743 73.32996 285 ft 22 kts 346°
2026-04-22 16:08 54.96908 73.32928 283 ft 22 kts 346°
2026-04-22 16:09 54.96955 73.32819 284 ft 0 kts 257°
2026-04-22 16:10 54.96926 73.32618 286 ft 50 kts 256°
2026-04-22 16:10 54.96790 73.31602 289 ft 119 kts 257°
2026-04-22 16:10 54.96649 73.30534 294 ft 156 kts 257°
2026-04-22 16:10 54.96208 73.28121 1188 ft 146 kts 248°
2026-04-22 16:11 54.95843 73.26434 1506 ft 163 kts 252°
2026-04-22 16:11 54.95514 73.24339 1541 ft 191 kts 259°
2026-04-22 16:11 54.95275 73.21969 1655 ft 212 kts 260°
2026-04-22 16:11 54.94997 73.19366 1965 ft 224 kts 259°
2026-04-22 16:12 54.94691 73.16664 2369 ft 234 kts 259°
2026-04-22 16:12 54.94356 73.13854 2799 ft 243 kts 258°
2026-04-22 16:12 54.93996 73.10945 3302 ft 247 kts 257°
2026-04-22 16:12 54.93623 73.08031 3793 ft 251 kts 257°
2026-04-22 16:13 54.93260 73.05068 4274 ft 255 kts 262°
2026-04-22 16:13 54.93545 73.02006 4572 ft 266 kts 298°
2026-04-22 16:13 54.94886 72.99796 4894 ft 277 kts 336°
2026-04-22 16:13 54.96777 72.99423 5298 ft 282 kts 13°
2026-04-22 16:14 54.98589 73.00682 5733 ft 285 kts 22°
2026-04-22 16:14 55.00436 73.02039 6166 ft 288 kts 22°
2026-04-22 16:14 55.02277 73.03389 6610 ft 290 kts 22°
2026-04-22 16:14 55.04122 73.04751 7043 ft 292 kts 22°
2026-04-22 16:15 55.06016 73.06152 7474 ft 294 kts 22°
2026-04-22 16:15 55.07895 73.07542 7889 ft 296 kts 22°
2026-04-22 16:15 55.09594 73.09129 8225 ft 299 kts 40°
2026-04-22 16:15 55.10836 73.12013 8547 ft 301 kts 69°
2026-04-22 16:16 55.11343 73.15527 8942 ft 299 kts 81°
2026-04-22 16:16 55.11718 73.19141 9314 ft 301 kts 81°
2026-04-22 16:16 55.12096 73.22742 9700 ft 310 kts 81°
2026-04-22 16:16 55.12492 73.26544 9988 ft 331 kts 81°
2026-04-22 16:17 55.12913 73.30619 10214 ft 353 kts 81°
2026-04-22 16:17 55.13351 73.34868 10823 ft 362 kts 81°
2026-04-22 16:17 55.13798 73.39192 11551 ft 366 kts 81°
2026-04-22 16:17 55.14258 73.43573 12234 ft 372 kts 79°
2026-04-22 16:18 55.15142 73.47875 12875 ft 380 kts 59°
2026-04-22 16:18 55.16752 73.51496 13510 ft 385 kts 47°
2026-04-22 16:18 55.18561 73.55054 14138 ft 391 kts 49°
2026-04-22 16:18 55.20291 73.58657 14787 ft 395 kts 50°
2026-04-22 16:19 55.22023 73.62380 15406 ft 399 kts 50°
2026-04-22 16:19 55.23780 73.66218 16019 ft 404 kts 51°
2026-04-22 16:19 55.25536 73.70093 16600 ft 409 kts 51°
2026-04-22 16:19 55.27302 73.74003 17208 ft 412 kts 51°
2026-04-22 16:20 55.29086 73.77957 17788 ft 416 kts 51°
2026-04-22 16:20 55.30956 73.81737 18329 ft 419 kts 41°
2026-04-22 16:20 55.33196 73.85032 18880 ft 422 kts 37°
2026-04-22 16:20 55.35466 73.88361 19400 ft 427 kts 44°
2026-04-22 16:21 55.37093 73.92676 19867 ft 432 kts 71°
2026-04-22 16:21 55.37508 73.97849 20328 ft 430 kts 99°
2026-04-22 16:21 55.36663 74.02741 20793 ft 423 kts 121°
2026-04-22 16:21 55.35391 74.07594 21265 ft 431 kts 111°
2026-04-22 16:22 55.34058 74.17983 22205 ft 442 kts 104°
2026-04-22 16:22 55.33500 74.23236 22666 ft 446 kts 103°
2026-04-22 16:22 55.32932 74.28629 23120 ft 449 kts 103°
2026-04-22 16:23 55.31792 74.39428 23992 ft 456 kts 103°
2026-04-22 16:23 55.31215 74.44865 24415 ft 459 kts 103°
2026-04-22 16:23 55.30626 74.50382 24846 ft 462 kts 103°
2026-04-22 16:24 55.30029 74.55952 25276 ft 466 kts 103°
2026-04-22 16:24 55.27644 74.66303 26122 ft 463 kts 119°
2026-04-22 16:24 55.26701 74.71693 26441 ft 476 kts 101°
2026-04-22 16:25 55.26621 74.77548 26844 ft 483 kts 88°
2026-04-22 16:25 55.26317 74.89295 27667 ft 484 kts 101°
2026-04-22 16:25 55.25758 74.95046 28135 ft 484 kts 103°
2026-04-22 16:26 55.25139 75.00819 28638 ft 483 kts 101°
2026-04-22 16:26 55.24973 75.06699 29111 ft 485 kts 88°
2026-04-22 16:26 55.25156 75.12602 29607 ft 484 kts 88°
2026-04-22 16:26 55.25272 75.18497 30110 ft 485 kts 90°
2026-04-22 16:27 55.25312 75.24475 30638 ft 485 kts 91°
2026-04-22 16:27 55.25274 75.30321 31176 ft 484 kts 92°
2026-04-22 16:27 55.25230 75.36148 31681 ft 483 kts 91°
2026-04-22 16:27 55.25211 75.42030 32177 ft 482 kts 91°
2026-04-22 16:28 55.25203 75.47895 32660 ft 481 kts 91°
2026-04-22 16:28 55.25197 75.53738 33133 ft 481 kts 91°
2026-04-22 16:28 55.25188 75.59539 33575 ft 480 kts 91°
2026-04-22 16:28 55.25176 75.65385 34008 ft 480 kts 92°
2026-04-22 16:29 55.25160 75.71247 34382 ft 481 kts 92°
2026-04-22 16:29 55.25140 75.77173 34720 ft 482 kts 92°
2026-04-22 16:29 55.25117 75.83262 34831 ft 483 kts 92°
2026-04-22 16:29 55.25083 75.89175 34838 ft 481 kts 93°
2026-04-22 16:30 55.24956 76.00751 34825 ft 473 kts 92°
2026-04-22 16:30 55.24915 76.06466 34709 ft 473 kts 92°
2026-04-22 16:30 55.24879 76.12233 34664 ft 473 kts 92°
2026-04-22 16:31 55.24800 76.23750 34680 ft 477 kts 92°
2026-04-22 16:31 55.24707 76.35398 34708 ft 478 kts 92°
2026-04-22 16:32 55.24605 76.47006 34703 ft 476 kts 92°
2026-04-22 16:32 55.24493 76.58553 34711 ft 477 kts 91°
2026-04-22 16:33 55.24368 76.70229 34690 ft 478 kts 92°
2026-04-22 16:33 55.24233 76.81966 34711 ft 477 kts 92°
2026-04-22 16:34 55.24087 76.93535 34728 ft 478 kts 92°
2026-04-22 16:34 55.23927 77.05261 34743 ft 478 kts 92°
2026-04-22 16:35 55.23759 77.16856 34744 ft 479 kts 92°
2026-04-22 16:35 55.23579 77.28529 34764 ft 479 kts 92°
2026-04-22 16:36 55.23394 77.39815 34809 ft 479 kts 92°
2026-04-22 16:36 55.23190 77.51610 34841 ft 480 kts 92°
2026-04-22 16:37 55.22975 77.63317 34840 ft 479 kts 92°
2026-04-22 16:37 55.22752 77.74976 34827 ft 478 kts 92°
2026-04-22 16:38 55.22517 77.86658 34838 ft 479 kts 92°
2026-04-22 16:38 55.22270 77.98273 34839 ft 479 kts 92°
2026-04-22 16:39 55.22012 78.09930 34839 ft 479 kts 92°
2026-04-22 16:39 55.21743 78.21623 34841 ft 480 kts 92°
2026-04-22 16:40 55.21462 78.33295 34843 ft 480 kts 92°
2026-04-22 16:41 55.21020 78.50828 34846 ft 480 kts 92°
2026-04-22 16:41 55.20713 78.62467 34847 ft 480 kts 92°
2026-04-22 16:42 55.20392 78.74174 34838 ft 480 kts 92°
2026-04-22 16:42 55.20061 78.85842 34851 ft 481 kts 92°
2026-04-22 16:43 55.19719 78.97524 34854 ft 480 kts 92°
2026-04-22 16:43 55.19366 79.09197 34855 ft 480 kts 92°
2026-04-22 16:44 55.19001 79.20873 34858 ft 481 kts 92°
2026-04-22 16:44 55.18624 79.32579 34861 ft 481 kts 92°
2026-04-22 16:45 55.18236 79.44300 34862 ft 480 kts 92°
2026-04-22 16:45 55.17839 79.55949 34796 ft 481 kts 92°
2026-04-22 16:45 55.17635 79.61785 34008 ft 488 kts 92°
2026-04-22 16:46 55.17419 79.67770 32875 ft 500 kts 93°
2026-04-22 16:46 55.17195 79.73785 31762 ft 504 kts 93°
2026-04-22 16:46 55.16965 79.79874 30789 ft 498 kts 93°
2026-04-22 16:46 55.16742 79.85834 29967 ft 488 kts 92°
2026-04-22 16:47 55.16524 79.91700 29153 ft 479 kts 92°
2026-04-22 16:47 55.16308 79.97461 28290 ft 472 kts 92°
2026-04-22 16:47 55.16165 80.01232 27706 ft 467 kts 92°
2026-04-22 16:47 55.15875 80.08778 26745 ft 468 kts 93°
2026-04-22 16:48 55.15650 80.14456 26175 ft 463 kts 93°
2026-04-22 16:48 55.15432 80.19920 25613 ft 446 kts 93°
2026-04-22 16:48 55.15222 80.25253 25043 ft 440 kts 93°
2026-04-22 16:48 55.15002 80.30727 24421 ft 454 kts 93°
2026-04-22 16:49 55.14774 80.36172 23795 ft 447 kts 93°
2026-04-22 16:49 55.14547 80.41570 23159 ft 441 kts 93°
2026-04-22 16:49 55.14325 80.46887 22551 ft 434 kts 93°
2026-04-22 16:49 55.14108 80.52042 21974 ft 427 kts 93°
2026-04-22 16:50 55.13890 80.57195 21400 ft 420 kts 93°
2026-04-22 16:50 55.13673 80.62260 20837 ft 414 kts 93°
2026-04-22 16:50 55.13460 80.67210 20277 ft 408 kts 94°
2026-04-22 16:50 55.13244 80.72164 19717 ft 406 kts 94°
2026-04-22 16:51 55.13025 80.77106 19178 ft 414 kts 94°
2026-04-22 16:51 55.12807 80.81913 18654 ft 409 kts 94°
2026-04-22 16:51 55.12597 80.86507 18124 ft 402 kts 94°
2026-04-22 16:51 55.12378 80.91323 17572 ft 396 kts 94°
2026-04-22 16:52 55.12110 80.96058 17034 ft 389 kts 102°
2026-04-22 16:52 55.11065 81.00356 16545 ft 378 kts 122°
2026-04-22 16:52 55.09791 81.04293 16027 ft 369 kts 119°
2026-04-22 16:52 55.08645 81.08236 15526 ft 360 kts 117°
2026-04-22 16:53 55.07580 81.12096 15043 ft 351 kts 116°
2026-04-22 16:53 55.06560 81.15880 14573 ft 343 kts 116°
2026-04-22 16:53 55.05557 81.19637 14115 ft 336 kts 116°
2026-04-22 16:53 55.04584 81.23289 13672 ft 333 kts 116°
2026-04-22 16:54 55.03627 81.26898 13226 ft 330 kts 116°
2026-04-22 16:54 55.02667 81.30500 12763 ft 326 kts 116°
2026-04-22 16:54 55.01726 81.34032 12313 ft 320 kts 116°
2026-04-22 16:54 55.00794 81.37528 11881 ft 313 kts 116°
2026-04-22 16:55 54.99890 81.40919 11462 ft 307 kts 116°
2026-04-22 16:55 54.99008 81.44234 11051 ft 302 kts 116°
2026-04-22 16:55 54.98126 81.47533 10638 ft 297 kts 116°
2026-04-22 16:55 54.97266 81.50746 10236 ft 292 kts 116°
2026-04-22 16:56 54.96421 81.53898 9936 ft 284 kts 116°
2026-04-22 16:56 54.95583 81.57018 9831 ft 288 kts 116°
2026-04-22 16:56 54.94736 81.60166 9826 ft 286 kts 117°
2026-04-22 16:56 54.93920 81.63201 9786 ft 270 kts 116°
2026-04-22 16:57 54.93112 81.66202 9474 ft 284 kts 117°
2026-04-22 16:57 54.92505 81.69503 9011 ft 292 kts 95°
2026-04-22 16:57 54.92513 81.73005 8557 ft 289 kts 90°
2026-04-22 16:57 54.92565 81.76477 8152 ft 285 kts 90°
2026-04-22 16:58 54.92596 81.78750 7903 ft 282 kts 90°
2026-04-22 16:58 54.92652 81.83199 7423 ft 276 kts 90°
2026-04-22 16:58 54.92688 81.86517 7060 ft 271 kts 91°
2026-04-22 16:58 54.92720 81.89763 6700 ft 267 kts 91°
2026-04-22 16:59 54.92932 81.92911 6338 ft 266 kts 70°
2026-04-22 16:59 54.93964 81.95519 6042 ft 269 kts 39°
2026-04-22 16:59 54.95653 81.96986 5798 ft 274 kts
2026-04-22 16:59 54.97540 81.97077 5839 ft 276 kts 358°
2026-04-22 17:00 54.99459 81.97045 5862 ft 274 kts 358°
2026-04-22 17:00 55.03269 81.97501 5858 ft 278 kts 26°
2026-04-22 17:00 55.04972 81.99085 5886 ft 280 kts 28°
2026-04-22 17:01 55.06680 82.00675 5891 ft 278 kts 28°
2026-04-22 17:01 55.08389 82.02264 5885 ft 277 kts 28°
2026-04-22 17:01 55.10090 82.03847 5888 ft 277 kts 28°
2026-04-22 17:01 55.11647 82.05748 5866 ft 274 kts 53°
2026-04-22 17:02 55.12691 82.08504 5899 ft 274 kts 59°
2026-04-22 17:02 55.13714 82.11281 5895 ft 273 kts 58°
2026-04-22 17:02 55.14728 82.14038 5760 ft 267 kts 60°
2026-04-22 17:02 55.15357 82.16988 5559 ft 250 kts 90°
2026-04-22 17:03 55.15116 82.19853 5389 ft 234 kts 115°
2026-04-22 17:03 55.14225 82.22102 5184 ft 221 kts 140°
2026-04-22 17:03 55.12993 82.23583 4934 ft 211 kts 150°
2026-04-22 17:03 55.11780 82.24902 4701 ft 199 kts 148°
2026-04-22 17:04 55.10647 82.26128 4444 ft 189 kts 150°
2026-04-22 17:04 55.09460 82.26938 4151 ft 181 kts 170°
2026-04-22 17:04 55.08229 82.27281 3893 ft 180 kts 168°
2026-04-22 17:04 55.06991 82.27637 3638 ft 180 kts 168°
2026-04-22 17:05 55.05768 82.27984 3375 ft 179 kts 167°
2026-04-22 17:05 55.04546 82.28339 3112 ft 178 kts 167°
2026-04-22 17:05 55.03330 82.28685 2841 ft 172 kts 166°
2026-04-22 17:05 55.02198 82.29007 2611 ft 163 kts 165°
2026-04-22 17:06 55.01102 82.29327 2333 ft 158 kts 162°
2026-04-22 17:06 55.00106 82.29968 2056 ft 148 kts 143°
2026-04-22 17:06 54.99342 82.31062 1833 ft 141 kts 128°
2026-04-22 17:06 54.98801 82.32503 1817 ft 142 kts 113°
2026-04-22 17:07 54.98575 82.34212 1874 ft 147 kts 99°
2026-04-22 17:07 54.98482 82.35982 1892 ft 149 kts 91°
2026-04-22 17:07 54.98553 82.37795 1879 ft 153 kts 83°
2026-04-22 17:07 54.98735 82.39642 1867 ft 156 kts 79°
2026-04-22 17:08 54.98959 82.41497 1876 ft 158 kts 78°
2026-04-22 17:08 54.99187 82.43404 1867 ft 160 kts 78°
2026-04-22 17:08 54.99399 82.45305 1862 ft 160 kts 79°
2026-04-22 17:08 54.99596 82.47201 1860 ft 160 kts 79°
2026-04-22 17:09 54.99780 82.49108 1858 ft 159 kts 79°
2026-04-22 17:09 54.99952 82.50960 1770 ft 151 kts 79°
2026-04-22 17:09 55.00059 82.52113 1667 ft 141 kts 79°
2026-04-22 17:09 55.00268 82.54349 1330 ft 138 kts 79°
2026-04-22 17:10 55.00415 82.55990 1148 ft 138 kts 79°
2026-04-22 17:10 55.00547 82.57641 961 ft 138 kts 80°
2026-04-22 17:10 55.00703 82.59280 760 ft 138 kts 77°
2026-04-22 17:10 55.00879 82.60903 555 ft 136 kts 81°
2026-04-22 17:11 55.01013 82.62528 401 ft 136 kts 78°
2026-04-22 17:11 55.01158 82.64090 376 ft 117 kts 79°
2026-04-22 17:11 55.01257 82.65076 376 ft 50 kts 84°
2026-04-22 17:11 55.01309 82.65720 376 ft 52 kts 82°
2026-04-22 17:12 55.01348 82.66180 376 ft 36 kts 82°
2026-04-22 17:12 55.01364 82.66547 376 ft 25 kts 117°
2026-04-22 17:12 55.01210 82.66635 376 ft 12 kts 171°